Temperature
-4 -3 -3 -4 -4 -5 -5 -4 -3 -3 -4 -3 -4 -5 -5 -5 -5 -5 -5 -5 -5 -5 -5 -5 -5 -5 -5 -5 -5 -5 -5 -5 -5 -5 -5 -5 -5 -5 -5 -5 -5 -4 -4 -4
-4 -4 -4 -4 -4 -4 -5 -5 -5 -4 -4 -5 -5 -6 -6 -6 -6 -6 -6 -6 -6 -6 -6 -6 -6 -6 -6 -6 -6 -6 -6 -6 -6 -6 -6 -6 -6 -6 -6 -6 -5 -5 -5 -5
-4 -5 -4 -4 -5 -5 -6 -6 -6 -4 -4 -7 -7 -7 -7 -6 -6 -6 -6 -6 -6 -6 -6 -6 -6 -6 -6 -6 -6 -7 -7 -7 -7 -7 -7 -7 -7 -7 -7 -6 -6 -6 -6 -6
-5 -5 -4 -3 -6 -6 -6 -7 -8 -7 -8 -8 -7 -7 -7 -6 -6 -6 -6 -6 -6 -7 -7 -7 -7 -7 -7 -7 -7 -7 -7 -7 -7 -7 -7 -7 -7 -7 -7 -7 -7 -7 -7 -7
-6 -6 -5 -5 -7 -8 -7 -7 -8 -8 -8 -8 -8 -8 -7 -6 -6 -7 -7 -7 -7 -7 -7 -7 -7 -7 -7 -7 -8 -8 -8 -8 -8 -8 -8 -8 -8 -8 -8 -8 -8 -8 -7 -7
-7 -5 -4 -4 -7 -8 -7 -6 -7 -8 -9 -9 -9 -8 -7 -6 -7 -7 -7 -7 -7 -7 -7 -7 -8 -8 -8 -8 -8 -8 -8 -8 -8 -8 -8 -8 -8 -8 -8 -8 -8 -8 -8 -8
-7 -6 -6 -7 -8 -8 -5 -5 -7 -8 -8 -9 -10 -8 -7 -7 -7 -8 -8 -8 -8 -8 -8 -8 -8 -8 -9 -9 -9 -9 -9 -9 -9 -9 -9 -9 -9 -9 -9 -9 -9 -9 -9 -9
-8 -7 -6 -8 -9 -7 -7 -7 -7 -7 -8 -8 -8 -8 -8 -8 -8 -8 -8 -8 -8 -8 -8 -9 -9 -9 -9 -9 -10 -10 -10 -10 -10 -10 -10 -10 -10 -10 -10 -10 -10 -10 -9 -9
-8 -6 -7 -8 -7 -6 -7 -7 -7 -7 -8 -8 -8 -8 -9 -9 -9 -9 -9 -9 -9 -9 -9 -9 -9 -10 -10 -10 -10 -10 -10 -10 -10 -10 -10 -10 -10 -10 -10 -10 -10 -10 -10 -10
-10 -9 -8 -8 -7 -7 -7 -7 -7 -8 -8 -8 -9 -9 -9 -9 -9 -9 -9 -9 -10 -10 -10 -10 -10 -10 -11 -11 -11 -11 -11 -11 -11 -11 -11 -11 -11 -11 -11 -11 -11 -11 -11 -11
-10 -10 -9 -8 -7 -7 -7 -8 -8 -8 -8 -9 -9 -9 -10 -10 -10 -10 -10 -10 -10 -10 -10 -11 -11 -11 -11 -11 -11 -11 -11 -11 -12 -12 -12 -12 -12 -12 -12 -12 -12 -12 -12 -12
-8 -8 -9 -8 -7 -7 -8 -8 -8 -9 -9 -9 -10 -10 -10 -10 -11 -11 -11 -11 -11 -11 -11 -11 -11 -11 -11 -12 -12 -12 -12 -12 -12 -12 -12 -12 -12 -12 -12 -12 -12 -12 -13 -12
-8 -8 -8 -8 -8 -8 -9 -9 -9 -9 -10 -10 -10 -10 -11 -11 -11 -11 -11 -11 -11 -12 -12 -12 -12 -12 -12 -12 -12 -12 -12 -13 -13 -13 -13 -13 -13 -13 -13 -13 -13 -13 -13 -13
-8 -9 -9 -9 -9 -9 -10 -10 -10 -10 -10 -11 -11 -11 -11 -11 -11 -11 -12 -12 -12 -12 -12 -12 -12 -12 -13 -13 -13 -13 -13 -13 -13 -13 -13 -13 -13 -14 -13 -13 -13 -13 -13 -13
-9 -10 -10 -10 -10 -10 -10 -11 -11 -11 -11 -11 -12 -12 -12 -12 -12 -12 -12 -13 -13 -13 -13 -13 -13 -13 -13 -13 -13 -13 -13 -14 -14 -14 -14 -14 -14 -14 -14 -14 -14 -14 -14 -13
-10 -10 -10 -10 -10 -11 -11 -11 -12 -12 -12 -12 -12 -12 -13 -13 -13 -13 -13 -13 -13 -13 -13 -13 -13 -14 -14 -14 -14 -14 -14 -14 -14 -14 -14 -14 -14 -14 -14 -14 -14 -14 -14 -14
-11 -11 -11 -11 -11 -11 -12 -12 -12 -12 -13 -13 -13 -13 -13 -13 -13 -13 -14 -14 -14 -14 -14 -14 -14 -14 -14 -14 -14 -14 -14 -14 -14 -14 -14 -15 -15 -15 -15 -15 -15 -15 -15 -15
-11 -11 -11 -11 -12 -12 -12 -13 -13 -13 -13 -13 -14 -14 -14 -14 -14 -14 -14 -14 -15 -14 -14 -14 -15 -15 -15 -15 -15 -15 -15 -15 -15 -15 -15 -15 -15 -15 -15 -15 -15 -15 -15 -15
-11 -12 -12 -12 -13 -13 -13 -13 -13 -14 -14 -14 -14 -14 -15 -15 -15 -15 -15 -15 -15 -15 -15 -15 -15 -15 -15 -15 -15 -15 -15 -15 -15 -15 -15 -15 -15 -15 -15 -15 -15 -15 -15 -15
-12 -12 -12 -13 -13 -14 -14 -14 -14 -14 -14 -14 -15 -15 -15 -15 -15 -15 -16 -15 -15 -15 -15 -15 -15 -15 -15 -15 -15 -15 -15 -15 -15 -15 -15 -15 -15 -15 -15 -15 -16 -16 -15 -15
-13 -13 -13 -14 -14 -14 -14 -14 -14 -15 -15 -15 -15 -15 -15 -16 -16 -16 -16 -16 -16 -16 -16 -16 -16 -16 -16 -16 -16 -16 -16 -16 -16 -16 -16 -16 -16 -16 -16 -16 -16 -16 -16 -16
-14 -14 -14 -14 -14 -15 -15 -15 -15 -15 -15 -16 -16 -16 -16 -16 -16 -16 -16 -16 -16 -16 -16 -16 -16 -16 -16 -16 -16 -16 -16 -16 -16 -16 -16 -16 -16 -16 -16 -16 -16 -16 -16 -16
-14 -15 -15 -15 -15 -15 -15 -16 -16 -16 -16 -16 -16 -16 -16 -16 -17 -17 -16 -16 -16 -17 -17 -17 -17 -17 -17 -17 -16 -16 -16 -16 -16 -16 -16 -16 -16 -16 -16 -16 -16 -16 -16 -16
-15 -15 -15 -16 -16 -16 -16 -16 -16 -16 -17 -17 -17 -17 -17 -17 -17 -17 -17 -17 -17 -17 -17 -17 -17 -17 -17 -17 -17 -17 -17 -17 -17 -17 -17 -17 -17 -17 -17 -17 -17 -16 -16 -16
-16 -16 -16 -16 -16 -16 -17 -17 -17 -17 -17 -17 -17 -17 -17 -18 -18 -17 -17 -17 -17 -17 -17 -17 -17 -17 -17 -17 -17 -17 -17 -17 -17 -17 -17 -17 -17 -17 -17 -17 -17 -17 -17 -16
-16 -17 -17 -17 -17 -17 -17 -17 -17 -17 -17 -17 -17 -18 -18 -18 -18 -18 -18 -18 -18 -18 -18 -18 -18 -18 -18 -18 -18 -17 -17 -17 -17 -18 -18 -17 -17 -17 -17 -17 -17 -17 -17 -17
-17 -17 -17 -17 -18 -18 -18 -18 -18 -18 -18 -18 -18 -18 -18 -18 -18 -18 -18 -18 -18 -18 -18 -18 -18 -18 -18 -18 -18 -18 -18 -18 -18 -18 -18 -18 -18 -17 -17 -17 -17 -17 -17 -17
Wind_Speed
5 4 3 5 6 7 9 9 9 9 9 11 8 6 5 3 2 3 4 3 3 3 3 3 3 3 3 4 4 3 3 3 4 4 4 4 4 4 4 4 4 4 5 5
3 3 3 6 9 9 10 8 9 9 11 8 4 1 2 3 3 4 5 4 4 5 4 4 4 4 4 4 4 4 3 4 4 4 4 4 4 4 4 4 4 4 5 5
3 3 3 7 8 9 6 7 8 11 10 3 2 3 4 4 5 6 6 5 5 5 5 5 5 4 4 4 4 4 4 4 4 4 4 5 5 5 5 5 5 5 5 6
1 2 6 7 1 5 6 6 7 6 5 4 5 4 4 4 5 5 5 5 5 5 5 5 4 4 4 4 4 4 4 5 5 5 5 5 5 5 5 5 5 5 6 6
2 3 8 7 2 3 5 6 5 7 7 4 2 3 3 3 3 4 5 5 5 5 5 4 4 4 3 4 4 4 5 5 5 5 5 5 5 6 5 5 5 6 6 6
4 4 7 6 1 2 2 5 3 5 5 3 1 2 4 2 3 4 5 4 4 3 3 3 3 3 3 4 4 5 6 6 5 5 5 5 6 6 5 5 5 6 6 6
5 6 8 5 1 3 3 5 2 3 4 3 4 5 4 4 4 4 4 4 3 2 3 3 3 2 3 4 5 6 5 5 5 5 5 5 5 5 5 5 4 5 6 5
5 5 8 3 4 6 6 1 1 2 3 4 5 5 5 4 4 4 4 4 3 3 3 3 2 2 4 5 5 5 5 5 5 5 5 4 4 4 4 4 4 5 5 5
8 8 3 5 5 3 1 2 2 2 3 3 4 5 5 4 4 4 4 4 3 3 4 4 3 3 5 6 5 4 4 5 5 5 5 4 4 4 4 3 3 4 4 4
5 7 6 5 4 3 2 3 3 3 3 3 4 5 5 5 5 4 4 4 3 3 4 5 4 4 4 5 4 4 4 5 5 4 4 4 3 4 3 3 3 4 4 5
6 6 4 4 5 5 3 2 2 3 3 3 4 5 5 5 5 4 5 4 3 3 5 6 5 5 5 4 3 4 4 4 4 4 4 4 4 4 4 4 5 5 5 5
7 6 5 5 3 2 3 3 3 3 3 3 3 5 5 5 5 4 4 4 4 4 5 5 5 5 5 4 3 4 4 4 3 3 3 3 3 4 7 7 9 9 9 8
5 2 2 3 2 1 2 3 3 3 3 4 3 3 4 5 5 4 4 4 5 5 5 5 5 5 5 4 4 4 4 4 3 3 3 3 3 4 5 6 8 8 9 10
2 1 2 2 2 2 2 2 2 2 3 3 3 3 4 4 5 5 5 5 5 5 5 5 5 6 5 4 4 4 4 5 4 3 3 3 3 4 4 4 5 5 7 10
2 3 3 2 2 1 1 1 2 3 3 3 3 3 4 5 6 6 5 5 5 5 5 4 5 6 4 3 4 4 4 3 3 3 3 3 3 3 4 4 4 5 5 7
1 1 1 1 2 2 2 2 3 4 4 4 4 5 5 5 5 5 5 4 4 5 6 5 6 6 4 4 4 3 4 6 5 3 3 3 3 3 3 4 4 5 5 5
1 1 2 3 3 4 3 4 4 4 4 5 5 5 4 4 5 5 5 5 5 6 6 6 6 5 4 4 4 3 3 4 6 4 3 3 3 3 4 4 4 5 5 6
3 3 3 4 4 4 4 4 4 4 4 5 4 4 4 4 5 6 6 5 5 5 6 5 6 5 4 4 3 3 3 3 3 3 3 3 4 3 4 4 5 5 5 7
1 1 1 2 2 2 3 4 4 4 4 4 4 4 5 5 5 6 5 5 5 6 6 5 7 5 4 5 5 3 3 4 4 3 4 6 5 4 4 4 5 5 5 6
1 1 1 2 2 2 3 4 4 4 4 3 3 4 5 5 5 5 5 5 5 5 6 6 5 5 4 5 6 3 3 3 4 3 3 3 4 5 4 5 5 5 5 5
2 2 2 2 3 3 3 3 3 4 4 3 4 5 6 6 5 4 4 6 6 6 6 8 5 4 4 5 5 3 3 3 3 3 4 4 4 5 5 5 5 5 6 6
2 2 2 3 3 4 4 3 3 4 4 4 4 4 5 5 5 5 5 5 6 8 5 4 4 6 7 6 2 2 3 3 4 3 4 4 4 5 5 5 6 6 6 6
2 2 2 3 3 4 4 4 4 3 4 4 5 5 5 5 4 4 6 4 4 8 6 4 7 9 9 4 2 2 3 4 4 4 4 4 5 5 5 6 6 6 6 6
2 2 3 3 3 3 4 5 4 3 4 4 4 4 4 4 4 3 4 8 10 9 5 7 10 10 8 3 2 3 3 4 4 4 5 5 5 5 5 6 6 6 6 7
2 2 2 3 3 3 4 4 4 4 4 4 4 4 3 3 3 4 4 5 8 9 5 8 11 10 6 3 3 4 4 4 5 5 4 5 5 5 5 6 6 6 7 7
2 2 2 3 3 3 3 3 3 4 4 4 4 4 4 3 4 4 4 5 6 8 6 5 6 7 5 4 4 4 4 5 6 5 5 5 6 6 6 6 8 7 7 7
2 2 2 3 3 3 3 3 3 4 4 4 5 5 5 4 4 4 5 4 5 5 5 5 5 5 5 5 5 5 5 5 5 5 5 5 6 6 7 8 7 7 8 8
Wind_Direction
261 267 212 229 229 199 205 210 219 241 243 264 264 259 267 275 276 293 298 298 294 294 299 308 309 309 311 316 322 324 320 313 306 309 310 309 308 307 303 298 290 284 283 279
278 270 255 264 255 228 227 231 238 257 267 265 275 272 273 275 266 272 277 279 288 293 295 292 291 297 308 308 310 312 303 298 304 309 309 308 306 306 305 299 294 287 280 279
264 314 328 270 240 209 210 215 208 234 249 275 290 266 262 267 263 265 270 271 276 277 274 278 280 283 282 290 300 299 296 299 302 302 302 303 305 306 303 299 298 292 284 277
243 28 249 247 208 190 209 241 223 235 262 263 258 267 264 254 249 261 270 275 274 273 279 282 282 286 288 291 289 289 290 293 296 296 296 299 299 296 293 291 288 286 286 281
174 237 273 288 242 174 198 265 232 229 256 279 313 317 281 249 233 253 268 273 268 265 271 275 277 283 288 290 290 287 285 285 286 286 287 290 290 290 289 290 289 286 285 284
167 205 247 256 236 173 125 283 240 202 239 261 36 293 279 300 295 292 295 292 287 288 289 284 284 279 278 283 285 283 284 285 285 281 279 279 282 285 288 284 283 285 288 287
203 227 260 261 234 142 175 257 245 199 219 197 206 236 279 311 309 302 299 300 301 295 287 279 281 273 272 278 279 285 291 293 291 286 282 278 279 282 284 284 287 288 288 289
179 212 251 207 143 185 222 258 197 224 222 222 247 273 289 298 302 311 316 318 316 308 299 296 284 271 277 281 290 298 298 296 295 295 292 287 282 285 284 281 285 288 291 292
197 217 248 181 197 218 189 211 238 241 251 246 262 276 287 294 296 300 301 305 308 299 303 306 299 280 279 292 302 304 302 298 297 298 296 293 285 284 285 276 273 283 285 288
239 256 250 235 238 241 219 227 249 249 257 248 260 275 285 290 296 298 301 299 305 306 303 303 305 300 288 295 300 298 295 297 297 296 297 296 288 282 276 269 270 274 281 286
244 265 286 259 232 236 240 250 266 274 264 255 258 275 277 285 288 286 292 294 291 284 286 293 303 302 301 303 301 293 291 291 294 292 291 295 293 283 282 267 265 269 269 275
235 230 217 249 245 220 228 251 260 275 295 288 260 268 279 283 285 283 283 285 285 282 284 289 294 297 300 299 291 286 289 290 289 291 292 294 301 308 298 293 291 289 287 286
241 252 224 266 276 245 237 258 275 269 267 283 285 274 278 284 287 284 283 280 277 278 281 285 290 292 295 295 290 279 277 281 282 284 286 290 293 298 306 311 307 306 306 304
230 196 255 241 247 272 265 281 299 299 290 280 285 290 285 286 290 286 282 281 282 282 283 283 287 289 292 290 285 281 279 283 287 277 278 282 287 291 293 299 308 311 310 309
244 213 223 251 288 303 308 321 321 310 311 310 301 295 292 290 288 287 289 293 293 289 286 285 286 290 296 289 288 284 283 284 284 280 279 281 286 289 291 292 295 301 310 313
286 288 244 259 275 292 304 296 288 292 298 301 301 297 292 289 289 291 291 288 285 287 287 287 285 291 293 288 289 286 282 289 299 295 292 295 296 292 293 294 298 299 300 305
186 261 271 281 281 285 279 271 266 278 287 289 290 296 301 303 302 299 297 294 283 279 281 283 288 295 292 283 279 281 281 287 297 302 298 296 296 292 290 291 292 294 295 296
221 231 237 247 261 275 288 291 285 285 283 283 291 296 296 294 292 294 297 302 303 298 289 286 288 293 287 285 281 276 277 280 284 289 293 293 293 290 290 288 289 291 298 304
287 278 289 284 275 274 281 288 292 291 290 290 291 289 287 285 285 290 295 297 297 298 300 295 300 303 292 287 296 276 276 281 288 290 291 295 304 302 297 294 293 293 296 299
347 345 339 326 317 291 286 292 294 295 292 287 288 291 294 293 292 294 294 287 278 274 285 293 295 289 285 285 294 284 277 278 282 288 293 291 292 295 295 293 293 295 297 297
318 324 328 321 316 307 293 291 292 292 293 284 276 279 285 291 292 289 292 296 296 287 288 296 300 293 289 289 287 278 272 276 279 281 285 287 291 293 295 297 298 298 298 297
311 311 311 312 313 312 310 303 292 290 293 290 284 282 287 293 298 295 279 271 288 305 312 293 288 295 303 300 289 281 279 280 281 281 281 283 286 290 293 296 297 297 297 297
311 309 309 308 304 304 310 307 299 296 295 294 292 289 285 285 288 294 301 299 294 307 316 298 305 310 312 315 307 289 285 284 283 283 282 282 283 285 289 292 293 295 296 298
319 317 313 313 319 319 318 317 315 312 303 298 293 290 288 296 300 282 276 305 318 320 319 312 318 318 320 329 304 292 289 288 287 288 287 286 286 287 289 291 293 295 295 295
318 318 320 325 324 314 310 317 324 323 319 317 314 313 304 288 286 301 308 310 319 326 324 322 324 326 330 317 302 292 287 283 284 286 284 289 290 290 290 290 291 293 293 293
319 314 306 299 295 300 312 320 322 321 322 322 323 320 316 309 301 304 309 312 313 321 323 317 318 321 319 311 302 298 294 297 301 299 294 292 291 291 291 292 292 292 292 292
335 331 326 325 324 324 320 318 315 316 316 311 310 314 315 317 317 317 315 313 313 313 311 313 314 313 310 308 304 301 298 295 292 292 291 289 289 288 290 290 291 293 293 293
Height
1497 1495 1496 1496 1496 1499 1499 1496 1495 1487 1487 1479 1478 1479 1478 1478 1478 1478 1477 1477 1476 1475 1475 1474 1473 1473 1473 1472 1472 1472 1471 1470 1470 1470 1470 1469 1469 1468 1468 1468 1467 1467 1467 1467
1497 1494 1495 1495 1490 1492 1493 1492 1491 1487 1483 1476 1476 1477 1476 1476 1476 1475 1475 1474 1474 1473 1472 1471 1471 1470 1469 1469 1469 1468 1467 1467 1466 1466 1465 1465 1464 1463 1463 1462 1462 1462 1461 1461
1497 1497 1493 1490 1484 1485 1487 1486 1485 1482 1476 1475 1476 1475 1474 1474 1473 1473 1472 1472 1471 1470 1469 1468 1468 1467 1466 1466 1465 1464 1464 1463 1462 1462 1461 1460 1459 1459 1458 1457 1457 1456 1456 1456
1500 1500 1495 1479 1480 1479 1480 1480 1480 1477 1475 1474 1474 1473 1472 1471 1471 1470 1469 1469 1468 1467 1466 1465 1464 1464 1463 1462 1462 1461 1460 1459 1458 1458 1457 1456 1455 1454 1453 1453 1452 1451 1451 1450
1500 1501 1491 1481 1479 1480 1481 1478 1475 1475 1473 1473 1472 1471 1469 1469 1468 1467 1467 1466 1465 1464 1462 1461 1461 1460 1459 1458 1458 1457 1456 1455 1454 1453 1452 1451 1451 1450 1449 1448 1447 1446 1445 1444
1500 1497 1488 1476 1477 1476 1479 1477 1471 1470 1470 1471 1471 1473 1468 1466 1465 1464 1463 1462 1461 1460 1459 1458 1457 1456 1455 1454 1453 1452 1452 1451 1450 1449 1448 1447 1446 1445 1444 1443 1442 1441 1440 1439
1496 1494 1484 1477 1476 1477 1479 1472 1469 1467 1467 1468 1469 1468 1465 1463 1462 1461 1460 1459 1458 1456 1455 1454 1453 1452 1451 1450 1449 1448 1448 1447 1446 1445 1444 1442 1441 1440 1439 1438 1437 1436 1435 1434
1495 1492 1482 1474 1474 1475 1470 1467 1466 1465 1465 1465 1464 1463 1462 1460 1459 1457 1456 1455 1454 1453 1452 1451 1450 1448 1447 1446 1445 1444 1443 1442 1441 1440 1439 1438 1436 1435 1434 1433 1432 1431 1430 1428
1482 1476 1469 1468 1466 1466 1466 1465 1464 1464 1463 1463 1461 1460 1458 1457 1456 1454 1453 1452 1451 1450 1448 1447 1446 1445 1444 1442 1441 1439 1438 1437 1436 1435 1434 1433 1432 1430 1429 1429 1428 1426 1425 1424
1477 1469 1466 1465 1464 1463 1463 1463 1462 1462 1461 1460 1458 1457 1455 1454 1452 1451 1450 1449 1447 1446 1445 1444 1443 1442 1440 1439 1437 1436 1434 1433 1432 1431 1429 1429 1427 1426 1425 1424 1423 1422 1421 1420
1471 1465 1463 1461 1460 1460 1460 1460 1459 1459 1458 1457 1455 1454 1452 1451 1450 1448 1447 1446 1444 1443 1442 1440 1439 1438 1437 1435 1434 1432 1431 1429 1428 1427 1426 1424 1423 1422 1421 1420 1420 1419 1417 1417
1462 1459 1460 1458 1457 1457 1457 1456 1456 1455 1454 1454 1453 1451 1449 1448 1447 1445 1444 1442 1441 1439 1438 1437 1436 1435 1433 1432 1430 1429 1427 1426 1425 1423 1422 1421 1419 1418 1417 1416 1415 1414 1413 1412
1456 1455 1455 1455 1455 1455 1454 1453 1453 1452 1451 1450 1449 1448 1446 1444 1443 1442 1440 1439 1437 1436 1435 1433 1432 1431 1430 1428 1427 1425 1424 1422 1421 1420 1419 1417 1416 1414 1412 1411 1411 1409 1408 1407
1453 1453 1452 1452 1452 1452 1451 1450 1450 1449 1448 1447 1445 1444 1443 1441 1440 1438 1437 1435 1434 1432 1431 1430 1428 1427 1426 1425 1423 1422 1421 1419 1418 1417 1416 1414 1413 1411 1409 1407 1405 1404 1403 1402
1450 1450 1450 1449 1449 1449 1448 1447 1446 1446 1445 1443 1442 1441 1439 1438 1436 1434 1433 1431 1430 1428 1427 1426 1425 1424 1423 1421 1420 1418 1417 1416 1415 1414 1412 1411 1409 1408 1406 1404 1402 1400 1398 1397
1447 1447 1447 1447 1446 1446 1445 1444 1443 1442 1441 1440 1439 1438 1436 1434 1433 1431 1429 1428 1426 1424 1423 1422 1421 1420 1419 1418 1416 1415 1414 1413 1412 1410 1409 1408 1406 1404 1403 1401 1399 1397 1395 1394
1445 1444 1444 1444 1444 1443 1442 1442 1441 1439 1438 1437 1436 1434 1433 1431 1429 1427 1426 1424 1423 1421 1420 1419 1418 1417 1416 1414 1413 1412 1411 1409 1408 1407 1405 1404 1403 1401 1399 1397 1396 1394 1392 1391
1444 1443 1443 1442 1441 1440 1440 1439 1438 1437 1435 1434 1432 1431 1429 1427 1425 1424 1422 1421 1419 1418 1417 1416 1415 1413 1412 1411 1410 1409 1407 1406 1405 1403 1402 1401 1399 1397 1396 1394 1392 1390 1388 1387
1441 1441 1440 1440 1439 1438 1437 1436 1435 1434 1432 1431 1429 1427 1426 1424 1423 1421 1419 1418 1416 1414 1413 1412 1411 1410 1409 1408 1407 1405 1404 1403 1401 1400 1399 1397 1396 1394 1392 1390 1389 1387 1385 1383
1440 1439 1438 1437 1437 1436 1435 1433 1432 1431 1430 1428 1426 1424 1423 1421 1420 1418 1416 1415 1413 1411 1410 1409 1408 1407 1406 1405 1403 1402 1401 1399 1398 1397 1395 1394 1392 1390 1389 1387 1385 1383 1381 1379
1438 1437 1436 1435 1434 1433 1432 1431 1429 1428 1427 1425 1423 1421 1420 1418 1417 1415 1413 1411 1411 1409 1407 1406 1405 1404 1403 1401 1400 1399 1397 1396 1394 1393 1392 1390 1388 1387 1385 1383 1381 1380 1378 1375
1436 1435 1434 1433 1432 1431 1430 1428 1427 1425 1423 1422 1420 1419 1417 1415 1414 1413 1411 1410 1408 1406 1405 1403 1402 1401 1400 1398 1397 1395 1394 1392 1391 1390 1388 1387 1385 1383 1381 1380 1378 1376 1374 1371
1434 1433 1432 1431 1430 1428 1427 1426 1424 1422 1421 1419 1418 1416 1414 1413 1411 1410 1408 1407 1405 1404 1402 1400 1399 1398 1397 1395 1393 1392 1390 1389 1388 1386 1385 1383 1381 1380 1378 1376 1374 1372 1370 1368
1432 1431 1430 1429 1428 1426 1425 1423 1422 1420 1419 1417 1416 1414 1412 1411 1409 1408 1406 1404 1403 1401 1399 1398 1396 1395 1394 1392 1390 1388 1387 1385 1384 1383 1381 1379 1378 1376 1374 1372 1370 1368 1366 1364
1430 1429 1428 1427 1426 1424 1423 1421 1420 1418 1417 1415 1414 1412 1410 1409 1407 1405 1403 1401 1400 1398 1396 1395 1393 1392 1390 1388 1387 1385 1383 1382 1380 1379 1377 1376 1374 1372 1371 1369 1367 1365 1363 1360
1428 1427 1426 1425 1424 1423 1421 1420 1418 1417 1415 1413 1412 1410 1408 1407 1405 1403 1401 1399 1397 1396 1394 1392 1390 1388 1387 1385 1383 1381 1380 1378 1376 1375 1373 1372 1370 1368 1366 1365 1363 1361 1359 1357
1427 1426 1425 1424 1423 1422 1420 1419 1417 1416 1414 1412 1410 1408 1406 1404 1402 1401 1399 1397 1395 1393 1391 1389 1387 1385 1383 1381 1379 1378 1376 1374 1373 1371 1369 1367 1366 1364 1362 1360 1359 1357 1355 1352